This is the latest recevied weather packets stored in our database for station/object KF0FSA. If no packets are shown the sender has not sent any weather packets the latest 1 day(s).
| Time | Temp. | Humidity | Pressure | Rain* | Wind** | Luminosity | Snow |
|---|---|---|---|---|---|---|---|
| 1778037876 | 4.44° C | 54% | 961.8 hPa | 0 mm | 0.45 m/s, 302° | 0 W/m² | - |
| 1778037572 | 4.44° C | 53% | 961.8 hPa | 0 mm | 0.45 m/s, 291° | 0 W/m² | - |
| 1778037273 | 5° C | 52% | 961.8 hPa | 0 mm | 0.89 m/s, 286° | 0 W/m² | - |
| 1778036972 | 5° C | 50% | 961.7 hPa | 0 mm | 0.89 m/s, 273° | 0 W/m² | - |
| 1778036670 | 5° C | 49% | 961.6 hPa | 0 mm | 0.89 m/s, 292° | 0 W/m² | - |
| 1778036493 | 5° C | 50% | 961.6 hPa | 0 mm | 0.89 m/s, 301° | 0 W/m² | - |
| 1778036194 | 5° C | 50% | 961.6 hPa | 0 mm | 0.89 m/s, 305° | 0 W/m² | - |
| 1778035769 | 5.56° C | 51% | 961.7 hPa | 0 mm | 0.89 m/s, 290° | 0 W/m² | - |
| 1778035470 | 5.56° C | 51% | 961.6 hPa | 0 mm | 0.89 m/s, 299° | 0 W/m² | - |
| 1778035293 | 5.56° C | 50% | 961.4 hPa | 0 mm | 0.89 m/s, 352° | 0 W/m² | - |
| 1778034870 | 6.11° C | 49% | 961.3 hPa | 0 mm | 1.34 m/s, 297° | 0 W/m² | - |
| 1778034694 | 6.11° C | 48% | 961.2 hPa | 0 mm | 1.34 m/s, 305° | 0 W/m² | - |
| 1778034270 | 6.11° C | 48% | 961.1 hPa | 0 mm | 1.34 m/s, 286° | 0 W/m² | - |
| 1778033970 | 6.11° C | 48% | 961.1 hPa | 0 mm | 1.34 m/s, 305° | 0 W/m² | - |
| 1778033670 | 6.67° C | 47% | 960.9 hPa | 0 mm | 1.79 m/s, 328° | 0 W/m² | - |
| 1778033370 | 6.67° C | 46% | 960.8 hPa | 0 mm | 1.79 m/s, 299° | 0 W/m² | - |
| 1778033071 | 6.67° C | 45% | 960.7 hPa | 0 mm | 1.34 m/s, 310° | 0 W/m² | - |
| 1778032770 | 6.67° C | 45% | 960.6 hPa | 0 mm | 1.34 m/s, 292° | 0 W/m² | - |
| 1778032592 | 7.22° C | 44% | 960.6 hPa | 0 mm | 1.34 m/s, 301° | 0 W/m² | - |
| 1778032165 | 7.22° C | 44% | 960.7 hPa | 0 mm | 1.34 m/s, 279° | 0 W/m² | - |
| 1778031862 | 7.22° C | 44% | 960.6 hPa | 0 mm | 1.34 m/s, 299° | 0 W/m² | - |
| 1778031558 | 7.22° C | 43% | 960.4 hPa | 0 mm | 1.79 m/s, 301° | 2 W/m² | - |
| 1778031259 | 7.78° C | 43% | 960.5 hPa | 0 mm | 1.79 m/s, 311° | 4 W/m² | - |
| 1778030959 | 7.78° C | 41% | 960.4 hPa | 0 mm | 2.24 m/s, 301° | 7 W/m² | - |
| 1778030783 | 7.78° C | 41% | 960.2 hPa | 0 mm | 2.24 m/s, 296° | 11 W/m² | - |
* Rain latest hour (hover to see other rain measurements)
** Current wind speed in m/s (hover to see current wind gust speed)